Regional Weather Roundup
Issued by NWS Northern Indiana

Home | Current Version | Previous Version | Graphics & Text | Print | Product List | Glossary On
Versions: 1 2 3 4 5 6 7 8 9 10 11 12 13 14 15 16 17 18 19 20 21 22 23 24 25 26 27 28 29 30 31 32 33 34 35 36 37 38 39 40 41 42 43 44 45 46 47 48 49 50
384
ASUS43 KIWX 260610
RWRIWX

KIWX WEATHER ROUNDUP
NATIONAL WEATHER SERVICE NORTHERN INDIANA
200 AM EDT WED APR 26 2017

NOTE: "FAIR" INDICATES FEW OR NO CLOUDS BELOW 12,000 FEET WITH NO
SIGNIFICANT WEATHER AND/OR OBSTRUCTIONS TO VISIBILITY.

* THESE STATIONS ARE NOT UNDER NWS QUALITY CONTROL. THEY ALSO MAY NOT
  REPORT WEATHER SUCH AS PRECIPITATION OR FOG.

INZ001>027-260700-
NORTHERN INDIANA

CITY           SKY/WX    TMP DP  RH WIND       PRES   REMARKS
GARY*          CLOUDY    68  53  58 SE7       29.57F
VALPARAISO     CLOUDY    67  56  67 SE10      29.60F
6HR MIN TEMP:  67; 6HR MAX TEMP:  75; 6HR PCP: TRACE;

MICHIGAN CITY* PTCLDY    64  54  68 S7        29.60F
LAPORTE*       PTCLDY    65  55  71 S8        29.62S
6HR MIN TEMP:  64; 6HR MAX TEMP:  73;

KNOX*          PTCLDY    64  34  32 SE12      29.61F
SOUTH BEND     CLOUDY    66  55  67 S13       29.63F
6HR MIN TEMP:  65; 6HR MAX TEMP:  72;

GOSHEN         CLEAR     63  53  70 SE9       29.64S
6HR MIN TEMP:  62; 6HR MAX TEMP:  72;

MONTICELLO*    CLOUDY    65  55  69 SE6       29.62S
6HR MIN TEMP:  65; 6HR MAX TEMP:  74;

LOGANSPORT*    PTCLDY    59  54  82 SE8       29.64F
ROCHESTER*     CLEAR     66  55  68 S6        29.64F
WARSAW*        PTCLDY    63  54  72 SE3       29.65S
ANGOLA*        CLEAR     57  54  88 SE10      29.66F
FORT WAYNE     PTCLDY    60  53  77 SE7       29.67S
6HR MIN TEMP:  60; 6HR MAX TEMP:  73;

HUNTINGTON*    CLOUDY    61  55  80 CALM      29.67S
6HR MIN TEMP:  61; 6HR MAX TEMP:  72;

PERU/GRISSOM   PTCLDY    61  57  88 SE8       29.63S
6HR MIN TEMP:  60; 6HR MAX TEMP:  71;

MARION*        CLEAR     61  54  77 S7        29.68R HAZE

$$
INZ028>050-260700-
CENTRAL INDIANA

CITY           SKY/WX    TMP DP  RH WIND       PRES   REMARKS
LAFAYETTE      MOCLDY    64  56  75 SE6       29.61F
6HR MIN TEMP:  64; 6HR MAX TEMP:  74;

KOKOMO*        PTCLDY    61  55  81 SE8       29.67R
6HR MIN TEMP:  61; 6HR MAX TEMP:  72;

MUNCIE*        CLEAR     64  55  72 S5        29.67S
6HR MIN TEMP:  61; 6HR MAX TEMP:  74;

INDIANAPOLIS   PTCLDY    63  55  75 SE8       29.66R
6HR MIN TEMP:  63; 6HR MAX TEMP:  72;


$$
MIZ043>046-050>051-056>058-064>065-071>073-077>080-260700-
SOUTHWEST LOWER MICHIGAN

CITY           SKY/WX    TMP DP  RH WIND       PRES   REMARKS
BATTLE CREEK   CLOUDY    60  53  77 SE6       29.67R
6HR MIN TEMP:  60; 6HR MAX TEMP:  71;

BENTON HARBOR  CLOUDY    64  54  69 SE7       29.60F
6HR MIN TEMP:  62; 6HR MAX TEMP:  71;

COLDWATER*     MOCLDY    59  53  80 S6        29.66S
6HR MIN TEMP:  57; 6HR MAX TEMP:  70;

HILLSDALE*     CLEAR     55  52  88 SE10      29.67F
HOLLAND        CLOUDY    64  54  69 SE9       29.62S
6HR MIN TEMP:  62; 6HR MAX TEMP:  70;

GRAND RAPIDS   CLOUDY    62  55  77 E10       29.64F
6HR MIN TEMP:  61; 6HR MAX TEMP:  70;

KALAMAZOO      CLOUDY    61  51  70 SE3       29.65F
6HR MIN TEMP:  61; 6HR MAX TEMP:  72;

STURGIS*       CLOUDY    59  53  82 E5        29.65R
6HR MIN TEMP:  59; 6HR MAX TEMP:  71;

THREE RIVERS*  FAIR      58  53  84 CALM      29.65F
6HR MIN TEMP:  57; 6HR MAX TEMP:  71;


$$
OHZ001>008-015>018-024>025-260700-
NORTHWEST OHIO

CITY           SKY/WX    TMP DP  RH WIND       PRES   REMARKS
WAUSEON*       FAIR      57  54  88 SE7       29.70S
DEFIANCE       CLEAR     55  51  86 E6        29.68F
6HR MIN TEMP:  55; 6HR MAX TEMP:  73;

FINDLAY        CLEAR     62  52  69 SE10      29.71S
6HR MIN TEMP:  62; 6HR MAX TEMP:  73;

TOLEDO EXPRESS CLEAR     56  54  93 CALM      29.71S
6HR MIN TEMP:  55; 6HR MAX TEMP:  61;

TOLEDO METCALF CLEAR     58  54  86 SE8       29.72S
6HR MIN TEMP:  55; 6HR MAX TEMP:  60;

LIMA           CLEAR     62  54  74 SE9       29.71S
6HR MIN TEMP:  61; 6HR MAX TEMP:  71;


$$
AND FOR LAKE MICHIGAN COASTAL AND OPEN LAKE BUOY OBSERVATIONS

STATION/POSITION TEMP    WIND        PRES    VSBY  WAVE
                 AIR SEA DIR/SP/G                  HT/PER
                 (F)     (DEG/KT/KT) (MB)    (MI)  (FT/S)
CALUMET HARBOR           150/  7/ 12 1000.7F
MICHIGAN CITY     68     150/  9/ 10   N/A
BURNS HARBOR      69     160/  9/ 16 1002.4F
SOUTH LAKE BUOY   49 42   70/ 10/ 10 1002.3          0
4 MI NW BRIDGMAN  61 50  160/  8/ 10 1002.3          0

$$
&&




USA.gov is the U.S. government's official web portal to all federal, state and local government web resources and services.